Location: Rodson Ranch
(38.7188°N, 119.3202°W)
Time: 16:48:46
(UTC+00:00)

SL-14 R/B - Pass Details

Date: 29 October 2020
Orbit: 518 x 554 km, 82.4° (Epoch: 22 November)

Event Time Altitude Azimuth Distance (km) Brightness Sun altitude
Exits shadow 13:02:44 27° 302° (WNW) 1,064 4.3 -15.9°
Drops below altitude 10° 13:05:38 10° 345° (NNW) 1,834 5.8 -15.4°
Sets 13:08:02 0° 356° (N) 2,737 6.8 -14.9°
